Back to catalog

STARLINK-5792

AliveCommunicationsVLEO
NORAD 56035·PAYLOAD·🇺🇸 United States

Launched Mar 24, 2023 from Cape Canaveral Space Force Station

Loading…

Next Passes (next 24 hours)

TLE

FreshSource: CelesTrak SupGP

Epoch: Sep 14, 2026, 14:38 UTC

1 56035C 23042BB  26257.61020833 -.00024841  00000+0 -89983-3 0  2572
2 56035  43.0039  58.3086 0001742 272.9887 254.8480 15.27587506    15

Track STARLINK-5792 in real time with AllMySat

Download on the App Store